Change the Weather History Date:

Thursday, October 11, 2012

  Actual Average Record
Temperature  
Mean Temperature 84 °F -  
Max Temperature 92 °F 90 °F 96 °F (2003)
Min Temperature 77 °F 73 °F 68 °F (2010)
Cooling Degree Days 20    
Growing Degree Days 34 (Base 50)    
Moisture  
Dew Point 75 °F    
Average Humidity 77    
Maximum Humidity 94    
Minimum Humidity 52    
Precipitation  
Precipitation 0.00 in - - ()
Sea Level Pressure  
Sea Level Pressure 29.99 in    
Wind  
Wind Speed 5 mph ()    
Max Wind Speed 16 mph    
Max Gust Speed -    
Visibility 6.5 miles    
Events Thunderstorm    
Averages and records for this station are not official NWS values.
T = Trace of Precipitation, MM = Missing Value Source: Averaged Metar Reports

Daily Weather History Graph

Daily Weather History Graph

Search for Another Location

Airport or City:

Trip Planner

Search our weather history database for the weather conditions in past years. The results will help you decide how hot, cold, wet, or windy it might be!

Date:

Astronomy

Oct. 11, 2012 Rise Set
Actual Time 6:52 AM CDT 6:37 PM CDT
Civil Twilight 6:30 AM CDT 6:59 PM CDT
Nautical Twilight 6:04 AM CDT 7:25 PM CDT
Astronomical Twilight 5:39 AM CDT 7:50 PM CDT
Moon 3:01 AM CDT (10/11) 3:48 PM CDT (10/11)
Length of Visible Light 12h 28m
Length of Day
11h 44m
Waning Crescent, 18% of the Moon is Illuminated
Oct 11
Waning Crescent
Oct 15
New
Oct 21
First Quarter
Oct 29
Full
Nov 6
Last Quarter

Hourly Weather History & Observations

Time (CDT) Temp. Heat Index Dew Point Humidity Pressure Visibility Wind Dir Wind Speed Gust Speed Precip Events Conditions
12:52 AM 78.8 °F - 75.2 °F 89% 30.00 in 7.0 mi Calm Calm - N/A   Clear
1:49 AM 77.0 °F - 75.2 °F 94% 29.97 in 7.0 mi Calm Calm - N/A   Clear
2:49 AM 77.0 °F - 73.4 °F 89% 29.96 in 7.0 mi Calm Calm - N/A   Clear
4:05 AM 77.0 °F - 73.4 °F 89% 29.99 in 7.0 mi Calm Calm - N/A   Clear
4:50 AM 77.0 °F - 73.4 °F 89% 29.95 in 7.0 mi Calm Calm - N/A   Clear
5:50 AM 77.0 °F - 73.4 °F 89% 29.97 in 7.0 mi Calm Calm - N/A   Clear
6:51 AM 77.0 °F - 73.4 °F 89% 30.01 in 4.0 mi East 8.1 mph - N/A   Clear
7:47 AM 78.8 °F - 75.2 °F 89% 29.99 in 4.0 mi ENE 5.8 mph - N/A   Partly Cloudy
8:45 AM 82.4 °F 89.5 °F 75.2 °F 79% 30.02 in 5.0 mi East 12.7 mph - N/A   Scattered Clouds
9:47 AM 84.2 °F 92.3 °F 75.2 °F 74% 30.02 in 6.0 mi East 9.2 mph - N/A   Mostly Cloudy
9:50 AM 85 °F - 77 °F 72% 30.05 in 6 mi ESE 8.9 mph - -   Partly Cloudy
10:10 AM 86.0 °F 95.1 °F 75.2 °F 70% 30.04 in 7.0 mi East 10.4 mph - N/A   Mostly Cloudy
10:50 AM 84.2 °F 92.3 °F 75.2 °F 74% 30.03 in 7.0 mi East 6.9 mph - N/A   Mostly Cloudy
11:43 AM 86.0 °F 93.4 °F 73.4 °F 66% 30.01 in 7.0 mi East 8.1 mph - N/A   Mostly Cloudy
12:43 PM 89.6 °F 94.7 °F 69.8 °F 52% 30.01 in 7.0 mi East 11.5 mph - N/A   Mostly Cloudy
12:50 PM 90 °F - 77 °F 59% 30.00 in 6 mi ESE 6.7 mph - -   Partly Cloudy
1:45 PM 89.6 °F 96.2 °F 71.6 °F 55% 29.97 in 7.0 mi ENE 9.2 mph - N/A   Mostly Cloudy
2:50 PM 91.4 °F 100.1 °F 73.4 °F 55% 29.94 in 7.0 mi East 9.2 mph - N/A   Scattered Clouds
3:48 PM 86.0 °F 95.1 °F 75.2 °F 70% 29.96 in 7.0 mi NNE 11.5 mph - N/A   Scattered Clouds
3:50 PM 89 °F - 79 °F 66% 29.94 in 6 mi NNE 11.2 mph - -   Mostly Cloudy
4:46 PM 86.0 °F 95.1 °F 75.2 °F 70% 29.92 in 7.0 mi NE 11.5 mph - N/A   Scattered Clouds
5:43 PM 84.2 °F 92.3 °F 75.2 °F 74% 29.92 in 7.0 mi NE 9.2 mph - N/A   Scattered Clouds
6:50 PM 84 °F - 78 °F 76% 29.96 in 6 mi NE 15.7 mph - -   Partly Cloudy
6:51 PM 82.4 °F 89.5 °F 75.2 °F 79% 29.96 in 7.0 mi NE 11.5 mph - N/A   Scattered Clouds
7:36 PM 82.4 °F 89.5 °F 75.2 °F 79% 29.96 in 7.0 mi NE 9.2 mph - N/A Thunderstorm Thunderstorm
7:53 PM 82.4 °F 89.5 °F 75.2 °F 79% 29.97 in 7.0 mi ENE 9.2 mph - N/A Thunderstorm Thunderstorm
8:48 PM 80.6 °F 86.2 °F 75.2 °F 84% 29.99 in 7.0 mi ENE 9.2 mph - N/A   Clear
9:50 PM 81 °F - 77 °F 83% 30.02 in 3 mi East 15.7 mph - -   Scattered Clouds
9:50 PM 80.6 °F 85.4 °F 73.4 °F 79% 30.02 in 7.0 mi ENE 8.1 mph - N/A   Partly Cloudy
10:42 PM 78.8 °F - 73.4 °F 83% 30.02 in 7.0 mi ENE 9.2 mph - N/A   Partly Cloudy
11:44 PM 78.8 °F - 73.4 °F 83% 30.02 in 7.0 mi ENE 8.1 mph - N/A   Clear